Location: New Town
(33.2710°N, 90.7534°W)
Time: 13:25:47
(UTC+00:00)

Explorer 11/Cluster Stage 4 - Pass Details

Date: 19 May 2021
Orbit: 467 x 1257 km, 28.8° (Epoch: 14 June)

Event Time Altitude Azimuth Distance (km) Brightness Sun altitude
Rises 22:49:31 0° 232° (SW) 3,404 10.5 25.1°
Reaches altitude 10° 22:52:03 10° 224° (SW) 2,591 9.8 24.6°
Maximum altitude 22:57:53 37° 158° (SSE) 1,553 8.1 23.4°
Drops below altitude 10° 23:04:46 10° 94° (E) 3,076 9.1 21.9°
Sets 23:08:01 0° 87° (E) 4,116 9.7 21.3°
